Simultaneous Nadir Overpasses (SNOs) Predictions

Prediction of SNOs between AQUA and METOP-A Satellite Orbit:

Table of predicted SNOs for the next 14.0 days since TLE Epoch: 6/18/2021
Index Date (AQUA) Time (AQUA) Lat,Lon (AQUA) SZA (AQUA ) Date (METOP-A) Time (METOP-A) Lat,Lon (METOP-A) SZA (METOP-A ) Distance(km) Time Diff (sec)
1 06/19/2021 11:37:03 -77.48, 169.34 125.42 06/19/2021 11:36:28 -77.46, 169.41 125.43 2.49 35
2 06/19/2021 12:26:30 77.48, -23.02 54.58 06/19/2021 12:27:07 77.51, -23.06 54.60 3.53 37
3 06/22/2021 07:11:18 -77.49,-124.26 125.41 06/22/2021 07:10:49 -77.49,-124.13 125.40 3.27 29
4 06/22/2021 08:00:45 77.49, 43.37 54.60 06/22/2021 08:01:29 77.49, 43.21 54.60 3.97 44
5 06/25/2021 02:45:32 -77.51, -57.89 125.33 06/25/2021 02:45:10 -77.48, -57.86 125.35 3.39 22
6 06/25/2021 03:34:59 77.51, 109.74 54.68 06/25/2021 03:35:49 77.52, 109.66 54.68 2.37 50
7 06/27/2021 22:19:46 -77.48, 8.65 125.24 06/27/2021 22:19:31 -77.50, 8.59 125.21 2.56 15
8 06/27/2021 23:09:14 77.53, 176.09 54.83 06/27/2021 23:10:10 77.54, 176.11 54.82 1.56 56
9 06/30/2021 17:04:27 77.15, -91.23 54.52 06/30/2021 17:03:21 77.06, -94.23 54.69 75.29 66
10 06/30/2021 17:54:01 -77.51, 74.98 125.04 06/30/2021 17:53:52 -77.53, 75.04 125.02 2.34 9



Historial Predications of SNOs between AQUA and METOP-A
